This is the latest recevied weather packets stored in our database for station/object N5PA. If no packets are shown the sender has not sent any weather packets the latest 1 day(s).
| Time | Temp. | Humidity | Pressure | Rain* | Wind** | Luminosity | Snow |
|---|---|---|---|---|---|---|---|
| 1777998906 | 24.44° C | 59% | 1013.6 hPa | 0 mm | 1.79 m/s, 203° | 995 W/m² | - |
| 1777998606 | 24.44° C | 60% | 1013.6 hPa | 0 mm | 1.79 m/s, 203° | 995 W/m² | - |
| 1777998307 | 24.44° C | 61% | 1013.6 hPa | 0 mm | 1.34 m/s, 201° | 997 W/m² | - |
| 1777998006 | 24.44° C | 63% | 1013.5 hPa | 0 mm | 1.79 m/s, 206° | 997 W/m² | - |
| 1777997707 | 23.89° C | 62% | 1013.4 hPa | 0 mm | 1.79 m/s, 207° | 997 W/m² | - |
| 1777997405 | 23.89° C | 62% | 1013.5 hPa | 0 mm | 1.79 m/s, 207° | 997 W/m² | - |
| 1777997105 | 23.89° C | 63% | 1013.2 hPa | 0 mm | 2.24 m/s, 203° | 995 W/m² | - |
| 1777996807 | 23.89° C | 61% | 1013.3 hPa | 0 mm | 1.79 m/s, 195° | 997 W/m² | - |
| 1777996507 | 23.89° C | 62% | 1013.5 hPa | 0 mm | 1.79 m/s, 192° | 997 W/m² | - |
| 1777996207 | 23.89° C | 63% | 1013.6 hPa | 0 mm | 1.79 m/s, 191° | 997 W/m² | - |
| 1777995907 | 23.33° C | 65% | 1013.7 hPa | 0 mm | 1.34 m/s, 192° | 997 W/m² | - |
| 1777995607 | 23.33° C | 65% | 1013.6 hPa | 0 mm | 1.34 m/s, 196° | 997 W/m² | - |
| 1777995307 | 23.33° C | 66% | 1013.7 hPa | 0 mm | 1.34 m/s, 201° | 998 W/m² | - |
| 1777995005 | 22.78° C | 65% | 1013.8 hPa | 0 mm | 1.79 m/s, 207° | 998 W/m² | - |
| 1777994707 | 22.78° C | 65% | 1013.8 hPa | 0 mm | 1.79 m/s, 206° | 998 W/m² | - |
| 1777994406 | 22.78° C | 65% | 1013.7 hPa | 0 mm | 1.79 m/s, 201° | 998 W/m² | - |
| 1777994106 | 22.78° C | 65% | 1013.9 hPa | 0 mm | 1.79 m/s, 205° | 998 W/m² | - |
| 1777993806 | 22.78° C | 65% | 1013.9 hPa | 0 mm | 1.34 m/s, 205° | 997 W/m² | - |
| 1777993506 | 22.78° C | 65% | 1014 hPa | 0 mm | 1.34 m/s, 196° | 997 W/m² | - |
| 1777993206 | 22.78° C | 67% | 1014.1 hPa | 0 mm | 0.89 m/s, 202° | 998 W/m² | - |
| 1777992906 | 22.22° C | 66% | 1014.1 hPa | 0 mm | 1.34 m/s, 203° | 998 W/m² | - |
| 1777992605 | 22.22° C | 66% | 1014.1 hPa | 0 mm | 1.34 m/s, 196° | 998 W/m² | - |
| 1777992306 | 22.22° C | 67% | 1014.1 hPa | 0 mm | 1.34 m/s, 204° | 998 W/m² | - |
| 1777992006 | 21.67° C | 68% | 1013.9 hPa | 0 mm | 1.34 m/s, 209° | 998 W/m² | - |
| 1777991706 | 21.67° C | 70% | 1014.1 hPa | 0 mm | 1.34 m/s, 205° | 1000 W/m² | - |
* Rain latest hour (hover to see other rain measurements)
** Current wind speed in m/s (hover to see current wind gust speed)